{"data":{"norad_id":66408,"intl_designator":"2025-257AE","name":"STARLINK-35679","alt_names":[],"object_type":"PAYLOAD","status":"ACTIVE","operator":null,"country":"US","launch_date":"2025-11-09","launch_site_code":"AFETR","launch_vehicle":null,"mission":null,"orbit_class":"UNKNOWN","rcs_meters":null,"size_class":null,"mass_kg":null,"dimensions":null,"purposes":["comms"],"wikipedia_slug":null,"has_3d_model":false,"image_url":null,"decayed_at":null,"tle_current":{"epoch":"2026-05-25T05:14:19.546656Z","epoch_age_seconds":56524,"freshness":"FRESH","line1":"1 66408U 25257AE  26145.21828179  .00028668  00000+0  85610-3 0  9993","line2":"2 66408  53.1586 220.6024 0001154  84.9021 275.2113 15.34409614 31467","mean_motion":15.34409614,"eccentricity":0.0001154,"inclination_deg":53.1586,"raan_deg":220.6024,"arg_perigee_deg":84.9021,"mean_anomaly_deg":275.2113,"bstar":0.0008561,"rev_number":3146,"period_min":93.847170068631,"perigee_km":461.88523585604,"apogee_km":463.46409518845,"semimajor_km":6840.8116655222,"source":"CELESTRAK","updated_at":"2026-05-25T13:38:21.206310Z"}}}